EW1577 Weather Reports


Display with metric or nautical units.
time (UTC)temp
F
wind
direction
speed
MPH
gust
MPH
rain 1hr
in
rain 24hr
in
rain mn
in
humidity
%
barometer
mb
20190121043940 0 90 0.0 2.0 0.00 0.00 0.00 88 1025.5
20190121042940 1 90 0.0 2.0 0.00 0.00 0.00 88 1025.5
20190121041935 1 90 1.0 3.0 0.00 0.00 0.00 88 1025.2
20190121040935 1 90 1.0 3.0 0.00 0.00 0.00 88 1025.5
20190121035933 1 225 1.0 5.0 0.00 0.00 0.00 88 1025.2
20190121034935 1 90 1.0 3.0 0.00 0.00 0.00 88 1025.2
20190121033932 2 90 2.0 4.0 0.00 0.00 0.00 88 1025.2
20190121032936 2 113 1.0 3.0 0.00 0.00 0.00 86 1025.5
20190121031931 2 293 2.0 4.0 0.00 0.00 0.00 86 1024.8
20190121030927 2 225 2.0 4.0 0.00 0.00 0.00 86 1024.8
20190121025925 2 293 2.0 5.0 0.00 0.00 0.00 85 1024.5
20190121024929 2 293 2.0 4.0 0.00 0.00 0.00 86 1024.8
20190121023935 3 270 2.0 4.0 0.00 0.00 0.00 86 1024.5
20190121022945 3 270 2.0 3.0 0.00 0.00 0.00 86 1024.2
20190121021925 3 270 2.0 4.0 0.00 0.00 0.00 86 1024.2
20190121020927 4 270 2.0 5.0 0.00 0.00 0.00 86 1024.2
20190121015918 4 270 3.0 5.0 0.00 0.00 0.00 85 1024.2
20190121014917 4 248 2.0 5.0 0.00 0.00 0.00 86 1024.2
20190121013917 4 270 2.0 5.0 0.00 0.00 0.00 86 1023.8
20190121012915 4 270 2.0 6.0 0.00 0.00 0.00 86 1024.2
20190121011917 4 293 2.0 5.0 0.00 0.00 0.00 86 1024.2
20190121010915 4 248 2.0 4.0 0.00 0.00 0.00 85 1023.5
20190121005915 4 248 2.0 4.0 0.00 0.00 0.00 86 1024.5
20190121004910 4 293 2.0 4.0 0.00 0.00 0.00 86 1023.8
20190121003909 4 248 2.0 5.0 0.00 0.00 0.00 86 1024.2
20190121002908 4 248 2.0 5.0 0.00 0.00 0.00 88 1023.5
20190121001906 4 225 2.0 5.0 0.00 0.00 0.00 86 1023.8
20190121000912 4 293 2.0 5.0 0.00 0.00 0.00 86 1023.5
20190120235906 5 293 1.0 2.0 0.00 0.00 0.00 86 1022.8
20190120234908 5 293 1.0 3.0 0.00 0.00 0.00 86 1022.8
20190120233907 5 248 2.0 5.0 0.00 0.00 0.00 86 1022.8
20190120232900 6 338 2.0 6.0 0.00 0.00 0.00 86 1022.5
20190120231900 6 270 2.0 6.0 0.00 0.00 0.00 86 1022.8
20190120230901 6 203 2.0 4.0 0.00 0.00 0.00 86 1022.8
20190120225857 6 293 3.0 4.0 0.00 0.00 0.00 88 1021.7
20190120224905 7 293 3.0 6.0 0.00 0.00 0.00 88 1021.4
20190120223853 7 248 3.0 6.0 0.00 0.00 0.00 86 1021.7
20190120222854 8 315 3.0 6.0 0.00 0.00 0.00 86 1021.4
20190120221853 8 293 4.0 7.0 0.00 0.00 0.00 83 1021.0
20190120220854 9 315 4.0 7.0 0.00 0.00 0.00 83 1021.0
20190120215849 9 248 4.0 8.0 0.00 0.00 0.00 86 1020.7
20190120214848 9 270 4.0 7.0 0.00 0.00 0.00 83 1021.0
20190120213849 9 158 4.0 8.0 0.00 0.00 0.00 86 1020.7
20190120212849 9 225 4.0 7.0 0.00 0.00 0.00 85 1020.3
20190120211848 9 293 5.0 8.0 0.00 0.00 0.00 83 1020.0
20190120210846 9 315 4.0 10.0 0.00 0.00 0.00 85 1020.7
20190120205841 9 293 4.0 8.0 0.00 0.00 0.00 86 1020.0
20190120204843 10 293 6.0 9.0 0.00 0.00 0.00 83 1019.7
20190120203843 12 270 4.0 7.0 0.00 0.00 0.00 86 1020.3
20190120202839 11 315 6.0 10.0 0.00 0.00 0.00 83 1019.7
20190120201839 11 90 4.0 8.0 0.00 0.00 0.00 83 1019.0
20190120200841 11 315 4.0 6.0 0.00 0.00 0.00 85 1019.0
20190120195819 11 338 4.0 8.0 0.00 0.00 0.00 85 1019.3
20190120194816 11 270 4.0 7.0 0.00 0.00 0.00 83 1018.5
20190120193819 11 315 4.0 10.0 0.00 0.00 0.00 83 1018.5
20190120192816 10 0 6.0 9.0 0.00 0.00 0.00 85 1018.2
20190120191816 10 248 5.0 9.0 0.00 0.00 0.00 86 1019.0
20190120190812 10 270 6.0 9.0 0.00 0.00 0.00 86 1019.0
20190120185812 11 293 5.0 8.0 0.00 0.00 0.00 86 1018.2
20190120184812 10 270 6.0 9.0 0.00 0.00 0.00 86 1019.0
20190120183811 10 0 5.0 8.0 0.00 0.00 0.00 86 1018.2
20190120182808 11 225 5.0 9.0 0.00 0.00 0.00 86 1018.2
20190120181809 11 338 6.0 10.0 0.00 0.00 0.00 88 1018.2
20190120180804 10 293 5.0 9.0 0.00 0.00 0.00 86 1018.5
20190120175810 11 45 5.0 9.0 0.00 0.00 0.00 88 1017.5
20190120174802 9 293 5.0 9.0 0.00 0.00 0.00 88 1017.5
20190120173805 10 293 5.0 10.0 0.00 0.00 0.00 88 1017.5
20190120172802 10 270 5.0 9.0 0.00 0.00 0.00 88 1017.9
20190120171755 11 315 6.0 10.0 0.00 0.00 0.00 88 1017.2
20190120170755 10 248 6.0 9.0 0.00 0.00 0.00 88 1017.5
20190120165756 10 23 5.0 8.0 0.00 0.00 0.00 86 1017.5
20190120164756 10 270 6.0 12.0 0.00 0.00 0.00 88 1017.5
20190120163753 11 293 5.0 10.0 0.00 0.00 0.00 90 1017.9
20190120162753 11 293 6.0 10.0 0.00 0.00 0.00 88 1017.2
20190120161752 10 0 6.0 9.0 0.00 0.00 0.00 88 1017.2
20190120160754 10 293 5.0 8.0 0.00 0.00 0.00 91 1017.5
20190120155751 8 293 7.0 11.0 0.00 0.00 0.00 90 1018.2
20190120154748 8 248 5.0 9.0 0.00 0.00 0.00 90 1017.9
20190120153746 8 270 6.0 10.0 0.00 0.00 0.00 90 1017.5
20190120152744 9 315 5.0 7.0 0.00 0.00 0.00 90 1016.9
20190120151744 9 23 6.0 15.0 0.00 0.00 0.00 91 1016.5
20190120150743 10 293 6.0 10.0 0.00 0.00 0.00 91 1016.9
20190120145741 9 338 6.0 9.0 0.00 0.00 0.00 91 1016.5
20190120144742 9 270 7.0 9.0 0.00 0.00 0.00 91 1015.8
20190120143747 9 293 7.0 10.0 0.00 0.00 0.00 91 1015.5
20190120142738 9 225 5.0 12.0 0.00 0.00 0.00 91 1015.8
20190120141739 9 0 6.0 11.0 0.00 0.00 0.00 91 1015.5
20190120140737 9 270 6.0 10.0 0.00 0.00 0.00 91 1015.5
20190120135737 9 293 5.0 9.0 0.00 0.00 0.00 91 1015.1
20190120134734 9 293 6.0 11.0 0.00 0.00 0.00 91 1014.4
20190120133735 10 293 6.0 12.0 0.00 0.00 0.00 93 1013.7
20190120132722 10 225 7.0 11.0 0.00 0.00 0.00 93 1015.5
20190120131721 10 0.0 0.0 0.00 0.00 0.00 93